Vertical_Velocity
-0 3 -2 -2 5 1 3 2 -3 3 7 -0 -0 2 0 -0 1 -1 6 5 -11 -10 42 2 9 0 -6 0 -1 1 -2 -0 -6 10 0 0 2 2 -1 -3 0 2 -2
-2 -3 0 -2 4 -2 -6 -9 5 -5 8 4 -1 3 -3 1 2 -1 4 -5 0 -7 -11 1 18 4 -1 1 -1 4 -3 -2 3 1 3 3 0 0 0 1 0 -3 1
-8 -9 -1 0 1 -5 2 -5 8 4 4 5 -1 5 -0 -1 -1 0 6 -3 0 -4 -4 6 10 -1 4 2 -3 -4 -4 3 -2 1 -3 -2 -6 0 -1 0 -5 -11 0
3 -3 -1 -2 3 -2 -8 -1 6 3 3 3 -0 4 3 -3 3 4 6 -5 -5 15 0 -2 -2 2 4 0 2 1 2 -0 3 3 2 3 3 1 2 0 2 5 -4
-3 -5 -4 6 -4 4 2 -2 -5 -0 -2 6 3 4 2 -2 2 1 1 3 -0 -6 2 -7 -6 -5 0 3 2 -3 -5 -1 3 1 -2 2 1 -0 -2 5 11 1 -2
-3 -1 -1 1 3 1 2 3 -7 -6 -3 3 5 6 3 -2 -2 3 -1 -0 0 -1 -2 -6 -3 -7 -3 2 -1 3 -1 1 3 1 5 1 1 2 3 9 -15 0 -2
-5 -2 -5 -3 4 2 -3 4 2 -7 -5 0 4 8 0 -0 -1 2 3 1 5 -0 3 2 -10 -8 0 -1 0 1 1 1 5 2 4 3 -0 2 -4 -11 0 -2 -8
-1 1 3 -4 1 -9 5 -6 7 -6 -4 3 3 7 0 -1 1 1 3 2 -2 4 -1 1 -1 -2 -2 4 8 4 6 6 7 6 4 8 2 -0 -4 -7 -2 2 1
-5 -7 -0 -2 -3 -3 6 -4 3 7 -6 4 3 6 1 1 -1 -1 0 -0 -1 -3 2 7 3 2 -2 -1 -3 -6 -10 -7 -5 -1 -1 8 -5 -3 -9 8 -3 -3 6
3 -2 -11 1 -8 -3 4 0 2 3 16 6 4 4 1 -0 -2 -1 -1 2 1 2 4 20 17 45 3 3 10 5 3 -1 -2 -0 3 15 -5 2 3 4 3 -2 2
-7 -2 -1 -3 -9 -2 6 -0 -4 -3 4 8 7 5 1 1 -3 -1 0 -0 -1 -2 3 22 -1 -0 -11 0 19 1 6 4 1 -6 4 3 10 16 8 -3 3 -0 1
-1 3 2 -1 -5 3 6 4 2 -7 4 -1 7 1 2 4 -2 -2 1 -1 3 2 -5 -3 10 20 6 24 -9 0 9 8 4 -5 4 12 34 -2 -1 -0 6 2 2
-6 4 -1 -5 -1 3 5 3 7 -7 3 1 5 -1 -1 4 4 2 -2 -4 -3 -3 -3 -0 -2 13 19 2 21 2 21 10 0 8 20 7 -1 1 -2 2 -1 3 4
-6 3 -6 10 3 7 6 16 8 -3 3 -0 5 -0 -2 -1 2 4 3 -1 -3 -2 -3 -2 -5 -4 20 -3 8 18 17 -2 5 6 -4 -3 1 4 3 3 0 -0 -3
-14 -12 3 5 -10 -2 3 8 4 1 6 4 4 -0 -1 -1 1 1 4 2 2 1 -1 -2 -2 -2 -6 -4 -3 -3 -4 31 7 -4 8 -1 -2 -3 -1 0 0 2 2
-5 -17 -15 19 13 2 0 6 2 9 3 4 8 3 1 0 -0 0 4 3 1 1 1 -2 -2 1 -0 6 16 21 -0 -3 -1 0 -3 2 3 4 5 2 1 -3 1
-13 -3 -17 14 5 -5 2 5 -14 7 2 3 2 3 5 2 2 2 -2 -0 4 2 2 2 1 0 1 2 4 5 6 0 4 1 2 1 1 3 4 5 6 2 3
-16 -7 6 4 -11 13 -3 20 13 3 0 1 2 2 3 3 -2 -1 1 -1 1 3 3 2 -0 1 2 2 2 1 1 0 0 0 1 1 -2 -3 1 -4 3 0 -2
-13 -0 -10 -5 -5 -15 -17 32 -18 14 3 -1 5 10 2 1 1 1 2 1 1 3 2 4 3 2 2 2 2 -0 1 2 0 -0 -1 2 3 -4 1 -1 -4 -5 3
-4 -3 -13 -5 2 11 17 -13 25 8 9 -4 5 -1 -1 3 8 2 1 3 4 4 3 1 4 5 5 3 2 1 3 4 4 2 -2 1 8 2 -5 -2 0 6 3
1 -2 2 -1 1 12 12 2 0 12 -17 -6 -16 -4 2 6 3 1 2 0 1 2 3 4 3 4 5 7 6 1 2 1 3 1 -1 -2 -4 3 3 6 9 7 5
2 4 2 3 4 6 5 13 -17 2 31 15 10 -12 -16 -1 1 1 -1 0 1 0 -1 1 1 -0 0 0 2 -0 -1 2 -2 2 2 6 6 7 11 8 2 1 -4
2 0 2 3 2 -0 5 5 -4 8 2 -10 -7 7 4 7 -1 -3 -1 1 -3 0 -3 -6 -6 -9 -8 -4 -1 -1 1 5 9 10 9 10 11 7 5 4 -0 -3 -11
-1 -2 -6 -5 -2 -2 -1 3 -5 1 8 5 2 8 23 -1 -9 -16 -8 13 10 -27 16 -8 -1 13 -10 4 7 1 9 4 13 24 3 1 -1 0 -5 3 -6 -1 1
-6 1 -0 -1 0 -0 -1 0 4 4 1 1 3 5 5 9 -3 -1 1 2 4 3 11 5 8 -1 -1 -3 4 3 5 7 -5 -14 8 5 0 0 -6 -3 -2 2 -2
-0 -8 -8 -3 -3 1 1 2 2 4 1 4 1 9 4 3 -2 4 -8 -1 6 5 6 12 1 8 6 16 -1 -2 -13 2 2 -1 -1 1 -4 -6 -3 -0 4 1 -3
Height
3039 3036 3035 3039 3040 3043 3047 3048 3049 3049 3053 3054 3053 3050 3046 3044 3043 3043 3042 3036 3034 3038 3042 3054 3064 3072 3082 3091 3097 3104 3111 3115 3118 3123 3126 3132 3134 3138 3141 3143 3145 3148 3150
3029 3028 3028 3032 3034 3036 3040 3042 3044 3044 3047 3048 3047 3044 3042 3040 3039 3039 3037 3031 3030 3034 3041 3051 3060 3068 3078 3087 3093 3097 3104 3109 3115 3119 3125 3129 3133 3136 3139 3141 3144 3147 3148
3022 3021 3021 3026 3028 3032 3034 3036 3037 3039 3041 3043 3041 3040 3038 3036 3036 3036 3036 3033 3033 3037 3043 3049 3059 3067 3077 3084 3090 3095 3100 3106 3111 3116 3121 3124 3128 3134 3136 3140 3141 3143 3145
3017 3016 3014 3016 3021 3024 3027 3029 3030 3034 3036 3037 3036 3036 3034 3034 3034 3035 3036 3035 3036 3038 3043 3050 3057 3066 3073 3080 3087 3092 3096 3102 3106 3112 3115 3121 3126 3130 3133 3136 3137 3140 3139
3012 3011 3009 3008 3011 3017 3021 3022 3024 3027 3030 3031 3032 3032 3031 3031 3031 3032 3034 3036 3038 3038 3042 3048 3055 3060 3069 3077 3083 3088 3092 3097 3104 3109 3113 3118 3122 3126 3130 3132 3135 3135 3138
3007 3005 3004 3004 3009 3011 3015 3017 3019 3021 3025 3027 3027 3028 3027 3026 3027 3029 3030 3032 3035 3038 3040 3045 3052 3057 3065 3072 3079 3084 3089 3094 3100 3105 3109 3114 3120 3124 3125 3127 3128 3132 3132
3000 3000 2999 2999 3002 3005 3009 3010 3013 3016 3020 3022 3023 3024 3023 3022 3022 3025 3028 3031 3033 3036 3040 3045 3049 3055 3061 3067 3073 3078 3084 3090 3094 3100 3104 3109 3113 3117 3117 3119 3121 3123 3127
2997 2996 2994 2994 2996 2999 3002 3003 3006 3011 3014 3017 3019 3020 3019 3018 3018 3020 3023 3027 3030 3032 3037 3041 3046 3051 3056 3061 3067 3073 3078 3083 3089 3094 3098 3102 3104 3107 3109 3113 3116 3118 3120
2993 2988 2986 2987 2989 2993 2994 2994 2998 3004 3010 3013 3014 3015 3015 3014 3015 3016 3019 3021 3023 3027 3031 3034 3038 3042 3048 3054 3060 3064 3068 3071 3077 3083 3088 3093 3096 3100 3103 3107 3110 3112 3113
2987 2984 2981 2979 2982 2983 2985 2986 2990 2998 3005 3008 3010 3011 3011 3011 3012 3012 3015 3017 3019 3021 3022 3023 3027 3029 3038 3046 3051 3055 3060 3064 3069 3074 3080 3086 3089 3093 3097 3100 3102 3104 3107
2982 2976 2974 2973 2975 2976 2978 2981 2986 2993 2999 3003 3005 3006 3007 3007 3009 3010 3013 3011 3013 3016 3015 3013 3016 3022 3028 3037 3043 3049 3056 3060 3064 3070 3075 3079 3083 3087 3091 3093 3094 3097 3100
2978 2973 2968 2967 2967 2967 2970 2975 2981 2989 2995 2997 3000 3001 3003 3004 3005 3007 3009 3009 3010 3012 3012 3009 3011 3018 3023 3029 3035 3043 3049 3055 3060 3066 3071 3073 3077 3081 3085 3086 3088 3091 3093
2970 2969 2964 2962 2960 2961 2964 2970 2977 2986 2991 2994 2996 2997 3000 3002 3003 3004 3006 3007 3006 3009 3010 3010 3010 3016 3021 3025 3030 3038 3042 3049 3056 3060 3066 3070 3073 3076 3078 3081 3083 3083 3085
2968 2963 2959 2960 2958 2957 2959 2965 2972 2982 2987 2990 2992 2995 2997 2999 3001 3003 3004 3005 3006 3007 3008 3010 3013 3015 3018 3020 3026 3033 3040 3045 3052 3058 3062 3065 3067 3070 3072 3075 3077 3078 3079
2964 2958 2953 2950 2951 2953 2955 2960 2969 2977 2982 2986 2989 2992 2994 2996 2999 3000 3003 3005 3006 3006 3007 3009 3011 3014 3017 3021 3027 3032 3038 3044 3049 3054 3056 3059 3063 3065 3067 3068 3069 3070 3071
2961 2955 2951 2946 2947 2949 2952 2957 2965 2971 2976 2980 2985 2989 2992 2994 2997 2999 3001 3004 3006 3007 3009 3009 3011 3014 3017 3021 3027 3031 3036 3041 3045 3048 3052 3055 3057 3059 3060 3062 3063 3064 3064
2960 2954 2950 2943 2944 2946 2948 2954 2960 2964 2970 2975 2980 2985 2988 2992 2995 2997 2999 3001 3004 3007 3009 3011 3013 3015 3018 3021 3026 3030 3033 3037 3040 3043 3046 3049 3051 3053 3054 3055 3056 3056 3055
2958 2953 2948 2946 2944 2943 2943 2942 2953 2960 2964 2970 2975 2979 2983 2988 2992 2994 2997 3000 3003 3005 3008 3010 3013 3015 3018 3021 3025 3028 3031 3033 3036 3038 3040 3042 3043 3044 3045 3046 3045 3045 3044
2956 2952 2947 2946 2946 2943 2942 2938 2946 2952 2957 2963 2971 2976 2980 2984 2988 2991 2994 2997 3000 3003 3005 3008 3011 3013 3016 3019 3022 3024 3026 3028 3030 3032 3033 3035 3035 3036 3037 3036 3036 3034 3032
2952 2951 2948 2947 2947 2945 2942 2939 2934 2946 2951 2957 2964 2970 2976 2980 2984 2987 2989 2992 2996 2999 3002 3004 3007 3010 3012 3015 3017 3019 3021 3023 3024 3026 3027 3028 3028 3028 3027 3025 3023 3022 3019
2947 2946 2946 2943 2943 2941 2940 2938 2936 2941 2945 2953 2960 2965 2970 2976 2978 2981 2984 2987 2990 2993 2997 3000 3003 3005 3008 3010 3012 3014 3016 3018 3019 3019 3020 3020 3019 3018 3016 3014 3011 3009 3009
2941 2940 2939 2936 2935 2933 2936 2936 2936 2938 2941 2950 2955 2960 2966 2969 2972 2975 2978 2981 2984 2988 2991 2993 2995 2998 3001 3004 3007 3009 3010 3011 3012 3012 3011 3008 3005 3005 3004 3002 3003 3003 3001
2936 2934 2932 2931 2931 2931 2933 2935 2938 2940 2942 2945 2947 2953 2957 2960 2965 2968 2973 2975 2979 2983 2986 2989 2991 2993 2996 2998 3000 3001 3001 3002 3001 3000 2998 2998 2996 2996 2998 2999 2997 2994 2993
2932 2929 2927 2926 2926 2927 2928 2931 2935 2938 2940 2942 2943 2948 2951 2953 2957 2962 2965 2968 2973 2978 2981 2982 2986 2985 2989 2990 2990 2990 2989 2990 2988 2989 2990 2992 2993 2993 2990 2987 2987 2988 2989
2928 2924 2921 2920 2921 2922 2924 2927 2930 2932 2936 2940 2943 2946 2944 2950 2954 2956 2961 2966 2969 2971 2974 2977 2978 2978 2979 2980 2979 2980 2977 2981 2984 2986 2986 2984 2985 2985 2985 2986 2986 2984 2982
2926 2923 2919 2918 2919 2918 2919 2921 2923 2926 2930 2934 2939 2943 2945 2948 2951 2954 2957 2958 2960 2964 2966 2965 2969 2969 2969 2969 2972 2975 2979 2979 2981 2981 2981 2980 2980 2982 2983 2982 2980 2978 2976